Back to catalog

STARLINK-34384

AliveCommunicationsVLEO
NORAD 64312·PAYLOAD·🇺🇸 United States

Launched Jun 8, 2025 from Vandenberg Space Force Base

Loading…

Next Passes (next 24 hours)

TLE

FreshSource: CelesTrak SupGP

Epoch: Sep 14, 2026, 14:10 UTC

1 64312C 25123X   26257.59076389 -.00035448  00000+0 -12329-2 0  2579
2 64312  70.0001  76.5801 0003151 266.1993 108.0938 15.29604013    10

Track STARLINK-34384 in real time with AllMySat

Download on the App Store